TimeEDT,TemperatureF,Dew PointF,Humidity,Sea Level PressureIn,VisibilityMPH,Wind Direction,Wind SpeedMPH,Gust SpeedMPH,PrecipitationIn,Events,Conditions,WindDirDegrees,DateUTC
12:53 AM,27.0,16.0,63,30.35,10.0,North,3.5,-,N/A,,Clear,10,2013-04-04 04:53:00
1:53 AM,26.1,18.0,71,30.35,10.0,Calm,Calm,-,N/A,,Clear,0,2013-04-04 05:53:00
2:53 AM,24.1,17.1,75,30.34,10.0,Calm,Calm,-,N/A,,Clear,0,2013-04-04 06:53:00
3:53 AM,25.0,16.0,69,30.32,10.0,SE,3.5,-,N/A,,Clear,130,2013-04-04 07:53:00
4:53 AM,25.0,16.0,69,30.30,10.0,SE,3.5,-,N/A,,Clear,130,2013-04-04 08:53:00
5:53 AM,24.1,16.0,71,30.29,10.0,SE,3.5,-,N/A,,Clear,140,2013-04-04 09:53:00
6:53 AM,27.0,14.0,58,30.27,10.0,SE,5.8,-,N/A,,Clear,140,2013-04-04 10:53:00
7:53 AM,28.9,16.0,58,30.25,10.0,SE,6.9,-,N/A,,Clear,140,2013-04-04 11:53:00
8:53 AM,33.1,19.0,56,30.25,10.0,SE,4.6,-,N/A,,Clear,140,2013-04-04 12:53:00
9:53 AM,37.9,17.1,43,30.22,10.0,South,5.8,-,N/A,,Clear,180,2013-04-04 13:53:00
10:53 AM,43.0,18.0,37,30.22,10.0,SSW,4.6,-,N/A,,Clear,210,2013-04-04 14:53:00
11:53 AM,46.9,17.1,30,30.19,10.0,WSW,4.6,-,N/A,,Clear,240,2013-04-04 15:53:00
12:53 PM,48.9,16.0,27,30.16,10.0,South,6.9,-,N/A,,Clear,190,2013-04-04 16:53:00
1:53 PM,51.1,16.0,25,30.12,10.0,West,4.6,-,N/A,,Clear,260,2013-04-04 17:53:00
2:53 PM,52.0,16.0,24,30.09,10.0,West,5.8,16.1,N/A,,Clear,260,2013-04-04 18:53:00
3:53 PM,54.0,16.0,22,30.06,10.0,WSW,10.4,-,N/A,,Clear,240,2013-04-04 19:53:00
4:53 PM,55.0,18.0,23,30.04,10.0,West,9.2,16.1,N/A,,Clear,270,2013-04-04 20:53:00
5:53 PM,55.0,17.1,23,30.01,10.0,WSW,10.4,-,N/A,,Clear,240,2013-04-04 21:53:00
6:53 PM,55.0,17.1,23,30.01,10.0,WSW,8.1,-,N/A,,Clear,240,2013-04-04 22:53:00
7:53 PM,50.0,18.0,28,30.00,10.0,WSW,6.9,-,N/A,,Clear,250,2013-04-04 23:53:00
8:53 PM,46.9,18.0,32,30.00,9.0,Calm,Calm,-,N/A,,Clear,0,2013-04-05 00:53:00
9:53 PM,42.1,21.9,45,30.00,9.0,SSW,3.5,-,N/A,,Clear,210,2013-04-05 01:53:00
10:53 PM,39.9,21.9,49,29.99,8.0,Calm,Calm,-,N/A,,Scattered Clouds,0,2013-04-05 02:53:00
11:53 PM,37.0,26.1,65,29.98,7.0,South,3.5,-,N/A,,Mostly Cloudy,190,2013-04-05 03:53:00